FW6687 Weather Reports


time (UTC)temp
C
wind
direction
speed
KPH
gust
KPH
rain 1hr
cm
rain 24hr
cm
rain mn
cm
humidity
%
barometer
mb
20260505041528 14 0 1.6 9.7 0.00 0.00 0.00 74 1011.4
20260505040029 14 317 3.2 8.0 0.00 0.00 0.00 76 1011.4
20260505034527 14 316 3.2 8.0 0.00 0.00 0.00 79 1011.4
20260505033028 14 315 4.8 9.7 0.00 0.00 0.00 83 1011.3
20260505031537 14 315 6.4 9.7 0.00 0.00 0.00 83 1011.4
20260505030030 15 311 8.0 11.3 0.00 0.00 0.00 80 1011.4
20260505024527 16 306 6.4 11.3 0.00 0.00 0.00 73 1011.5
20260505023027 15 266 4.8 8.0 0.00 0.00 0.00 85 1011.6
20260505021532 15 300 6.4 8.0 0.00 0.00 0.00 85 1011.6
20260505020036 15 290 4.8 8.0 0.00 0.00 0.00 87 1011.6
20260505014528 15 270 3.2 4.8 0.00 0.00 0.00 88 1011.7
20260505013031 15 313 1.6 4.8 0.00 0.00 0.00 88 1011.7
20260505011535 15 0 0.0 3.2 0.00 0.00 0.00 87 1011.9
20260505010040 16 310 1.6 4.8 0.00 0.00 0.00 86 1011.9
20260505004530 16 0 0.0 1.6 0.00 0.00 0.00 85 1012.1
20260505003032 16 333 0.0 3.2 0.00 0.00 0.00 85 1012.2
20260505001528 17 318 0.0 4.8 0.00 0.00 0.00 84 1012.2
20260505000041 17 0 0.0 6.4 0.00 0.00 0.00 85 1012.3
20260504234529 16 171 0.0 3.2 0.00 0.00 0.00 85 1012.3
20260504233026 17 265 0.0 3.2 0.00 0.00 0.00 83 1012.5
20260504231527 18 0 0.0 0.0 0.00 0.00 0.00 83 1012.2
20260504230039 18 0 0.0 0.0 0.00 0.00 0.00 82 1012.1
20260504224530 18 0 0.0 0.0 0.00 0.00 0.00 82 1012.2
20260504223029 18 0 0.0 0.0 0.00 0.00 0.00 82 1012.2
20260504221539 18 0 0.0 1.6 0.00 0.00 0.00 82 1012.1
20260504220026 18 0 0.0 0.0 0.00 0.00 0.00 81 1012.0
20260504214527 18 0 0.0 4.8 0.00 0.00 0.00 81 1012.0
20260504213033 18 99 1.6 8.0 0.00 0.00 0.00 81 1012.0
20260504211533 18 114 3.2 6.4 0.00 0.00 0.00 80 1012.0
20260504210027 19 114 4.8 9.7 0.00 0.00 0.00 79 1011.9
20260504204531 19 143 3.2 9.7 0.00 0.00 0.00 78 1011.8
20260504203043 19 148 1.6 4.8 0.00 0.00 0.00 77 1011.6
20260504201530 20 0 3.2 6.4 0.00 0.00 0.00 77 1011.6
20260504200027 20 0 0.0 3.2 0.00 0.00 0.00 76 1011.2
20260504194603 20 128 1.6 9.7 0.00 0.00 0.00 74 1010.8
20260504193030 20 75 6.4 16.1 0.00 0.00 0.00 72 1010.6
20260504191536 21 56 14.5 24.1 0.00 0.00 0.00 69 1010.3
20260504190030 22 50 3.2 9.7 0.00 0.00 0.00 60 1010.0
20260504184530 24 0 0.0 0.0 0.00 0.00 0.00 55 1009.9
20260504183030 25 0 0.0 8.0 0.00 0.00 0.00 49 1009.7
20260504181526 25 165 4.8 11.3 0.00 0.00 0.00 48 1009.5
20260504180025 26 151 4.8 11.3 0.00 0.00 0.00 45 1009.4
20260504174528 26 185 3.2 8.0 0.00 0.00 0.00 44 1009.4
20260504173034 26 311 3.2 16.1 0.00 0.00 0.00 44 1009.4
20260504171532 26 202 4.8 16.1 0.00 0.00 0.00 44 1009.5
20260504081529 18 0 0.0 3.2 0.00 0.00 0.00 90 1013.2